Garissa, Kenya

1:10 PM EAT on January 23, 2018 (GMT +0300)
Garissa

Weather History for HKGA - February, 2014

Change the Weather History Date:

Tuesday, February 25, 2014

  Actual Average Record
Temperature  
Mean Temperature 87 °F -  
Max Temperature 98 °F 101 °F - ()
Min Temperature 76 °F 76 °F - ()
Cooling Degree Days 22    
Growing Degree Days 37 (Base 50)    
Moisture  
Dew Point 68 °F    
Average Humidity 53    
Maximum Humidity 78    
Minimum Humidity 20    
Precipitation  
Precipitation 0.00 in - - ()
Sea Level Pressure  
Sea Level Pressure 29.79 in    
Wind  
Wind Speed 7 mph ()    
Max Wind Speed 21 mph    
Max Gust Speed -    
Visibility 11.5 miles    
Events      
T = Trace of Precipitation, MM = Missing Value Source: Averaged Metar Reports

Daily Weather History Graph

Daily Weather History Graph

Search for Another Location

Airport or City:

Trip Planner

Search our weather history database for the weather conditions in past years. The results will help you decide how hot, cold, wet, or windy it might be!

Date:

Astronomy

Feb. 25, 2014 Rise Set
Actual Time 6:30 AM EAT 6:38 PM EAT
Civil Twilight 6:09 AM EAT 6:59 PM EAT
Nautical Twilight 5:45 AM EAT 7:23 PM EAT
Astronomical Twilight 5:21 AM EAT 7:47 PM EAT
Moon 2:27 AM EAT (2/25) 2:56 PM EAT (2/25)
Length of Visible Light 12h 49m
Length of Day
12h 07m
Waning Crescent, 21% of the Moon is Illuminated
Feb 25
Waning Crescent
Mar 1
New
Mar 8
First Quarter
Mar 16
Full
Mar 24
Last Quarter

Hourly Weather History & Observations

Time (EAT) Temp. Heat Index Dew Point Humidity Pressure Visibility Wind Dir Wind Speed Gust Speed Precip Events Conditions
12:00 AM 83 °F - 68 °F 51% 29.80 in 19 mi SE 16.1 mph - -  
1:00 AM 80.6 °F 83.2 °F 68.0 °F 65% 29.80 in - SSE 13.8 mph - N/A   Clear
2:00 AM 80.6 °F 83.2 °F 68.0 °F 65% 29.80 in - SSE 9.2 mph - N/A   Clear
3:00 AM 80 °F - 68 °F 60% 29.80 in 19 mi SSE 6.9 mph - -  
4:00 AM 77.0 °F - 68.0 °F 74% 29.83 in - Calm Calm - N/A   Clear
5:00 AM 77.0 °F - 69.8 °F 78% 29.83 in - SSE 4.6 mph - N/A   Clear
6:00 AM 78 °F - 71 °F 72% 29.82 in 19 mi SSE 6.9 mph - -   Mostly Cloudy
7:00 AM 78.8 °F - 69.8 °F 74% 29.86 in 6.2 mi South 4.6 mph - N/A   Mostly Cloudy
8:00 AM 80.6 °F 83.9 °F 69.8 °F 70% 29.89 in 6.2 mi SSE 4.6 mph - N/A   Mostly Cloudy
9:00 AM 81 °F - 69 °F 60% 29.86 in 19 mi South 6.9 mph - -   Mostly Cloudy
10:00 AM 84.2 °F 87.3 °F 68.0 °F 58% 29.86 in 6.2 mi South 9.2 mph - N/A   Mostly Cloudy
11:00 AM 86.0 °F 89.4 °F 68.0 °F 55% 29.86 in 6.2 mi SSE 3.5 mph - N/A   Mostly Cloudy
12:00 PM 89 °F - 68 °F 40% 29.81 in 25 mi Calm Calm - -   Mostly Cloudy
1:00 PM 91.4 °F 95.4 °F 68.0 °F 46% 29.80 in 6.2 mi Calm Calm - N/A   Scattered Clouds
2:00 PM 95.0 °F 99.5 °F 68.0 °F 41% 29.77 in 6.2 mi ESE 9.2 mph - N/A   Partly Cloudy
3:00 PM 95 °F - 67 °F 30% 29.71 in 25 mi Calm Calm - -   Scattered Clouds
4:00 PM 96.8 °F 99.0 °F 64.4 °F 34% 29.71 in 6.2 mi ESE 5.8 mph - N/A   Partly Cloudy
6:00 PM 98 °F - 61 °F 20% 29.67 in 25 mi ESE 3.5 mph - -   Scattered Clouds
7:00 PM 96.8 °F 98.0 °F 62.6 °F 32% 29.71 in - Calm Calm - N/A   Clear
8:00 PM 93.2 °F 97.7 °F 68.0 °F 44% 29.71 in - Calm Calm - N/A   Clear
9:00 PM 91 °F - 67 °F 36% 29.73 in 19 mi SE 20.7 mph - -   Scattered Clouds
10:00 PM 87.8 °F 91.4 °F 68.0 °F 52% 29.77 in - SE 17.3 mph - N/A   Clear
11:00 PM 84.2 °F 87.3 °F 68.0 °F 58% 29.80 in - ESE 17.3 mph - N/A   Clear